Карточка аэропорта UWLW

Внимание!
Информация на этой странице в стадии наполнения.
Если вы не увидели какой-то информации, или заметили неточность - пожалуйста сообщите нам!
Спасибо!
Команда RU-STAFF
Название аэропортаВосточный
Название аэропорта (англ.)Vostochny
Превышение252 ft. (76.8 m.)
Координаты54°24', 48°48'
Высота перехода900m
Эшелон переходаQFE>=726mm:FL050; QFE<726:FL060
Коды ответчика6725-6727
Зона ОрВДСамара РПИ (UWWW)
Данные METARUWLW 260300Z 28006MPS CAVOK 17/04 Q1019 R20/CLRD60 NOSIG RMK QFE759/1012
Проноз погоды (TAF)UWLW 260151Z 2603/2703 26003G09MPS 9999 SCT030 TX20/2611Z TN07/2702Z BECMG 2606/2607 34003G09MPS TEMPO 2607/2616 01007G14MPS 6000 -SHRA BKN016CB
NOTAMshow/hide NOTAM
AWOS   TABLE

Информация о ВПП

ВПП Длина ВПП (м.) Покрытие Курс ВПП Частота ILS
205000Железобетон200110.1
025000Железобетон20110.1

Диспетчерские позиции


Сценарии



Спутниковое изображение